カタログに戻る

SL-12 R/B(2)

運用中GEO
NORAD 28704·ROCKET BODY·🇷🇺 Russia

打ち上げ Jun 24, 2005 から Baikonur Cosmodrome

Loading…

TLE

最新Source: Space-Track

元期: Sep 13, 2026, 23:59 UTC

1 28704U 05023H   26256.99956130  .00000104  00000-0  00000-0 0  9999
2 28704  12.9991  18.1560 0011027 329.3761  18.9166  1.00806650 78098

AllMySatでSL-12 R/B(2)をリアルタイム追跡

Download on the App Store